Regional Weather Roundup
Issued by NWS

Home | Current Version | Previous Version | Graphics & Text | Print | Product List | Glossary On
Versions: 1 2 3 4 5 6 7 8 9 10 11 12 13 14 15 16 17 18 19 20 21 22 23 24 25 26 27 28 29 30 31 32 33 34 35 36 37 38 39 40 41 42 43 44 45 46 47 48 49 50
000
ASUS43 KDTX 282310
RWRMI
MICHIGAN HOURLY REGIONAL WEATHER ROUNDUP
NATIONAL WEATHER SERVICE DETROIT/PONTIAC MI
600 PM EST SUN DEC 28 2014

NOTE: "FAIR" INDICATES FEW OR NO CLOUDS BELOW 12,000 FEET WITH NO
SIGNIFICANT WEATHER AND/OR OBSTRUCTION TO VISIBILITY.

MIZ047>049-052>055-059>063-066>070-074>076-081>083-290000-
SOUTHEAST LOWER MICHIGAN

CITY           SKY/WX    TMP DP  RH WIND       PRES   REMARKS
ADRIAN         PTCLDY    31  23  72 W5        30.16R
ALMA           CLEAR     30  21  70 W8        30.13R
ANN ARBOR      PTCLDY    30  23  75 W5        30.13R
BAD AXE        PTCLDY    30  24  78 W7        30.10R
DETROIT CITY   PTCLDY    35  20  54 W6        30.13R
DETROIT        PTCLDY    33  22  63 SW6       30.14R
FLINT          CLEAR     30  21  69 SW5       30.14R
GROSSE ILE     MOCLDY    34  21  60 W3        30.13R
HILLSDALE      PTCLDY    31  23  74 W6        30.13R
HOWELL         CLEAR     30  22  72 W7        30.13R

CITY           SKY/WX    TMP DP  RH WIND       PRES   REMARKS
JACKSON        CLEAR     31  19  61 W6        30.13R
LAMBERTVILLE   MOCLDY    34  27  75 W3        30.16R
LANSING          N/A     30  20  66 SW8       30.14R
LAPEER         NOT AVBL
MASON          PTCLDY    30  22  71 W5        30.14R
MONROE         MOCLDY    32  25  74 CALM      30.13R
MT. CLEMENS    PTCLDY    33  18  53 W7        30.10R
PONTIAC        PTCLDY    29  20  69 W7        30.11R
PORT HOPE        N/A     32  22  66 W7        30.08R
PORT HURON     CLEAR     32  19  59 W5        30.13R
TRI CITIES     CLEAR     31  21  66 W7        30.13R
YPSILANTI      PTCLDY    34  23  64 SW6       30.14R
$$
MIZ043>046-050>051-056>058-064>065-071>073-077>080-290000-
SOUTHWEST LOWER MICHIGAN

CITY           SKY/WX    TMP DP  RH WIND       PRES   REMARKS
BATTLE CREEK   CLEAR     29  20  69 W7        30.15R
BENTON HARBOR  CLEAR     27  20  75 W3        30.18S
BIG RAPIDS     CLOUDY    29  22  75 NW7       30.12R
COLDWATER      CLEAR     29  22  73 NW5       30.15R
HOLLAND        PTCLDY    32  22  66 W7        30.17R
GRAND RAPIDS   PTCLDY    30  20  66 W12       30.15S
KALAMAZOO      PTCLDY    30  20  66 W8        30.16R
MARSHALL       CLEAR     28  20  72 W9        30.14S
MUSKEGON       MOCLDY    31  21  66 NW7       30.17R
$$
MIZ016>042-290000-
NORTHERN LOWER MICHIGAN

CITY           SKY/WX    TMP DP  RH WIND       PRES   REMARKS
ALPENA         CLOUDY    28  18  66 W12G20    30.08R
BEAVER ISLAND  CLOUDY    24  15  69 NW8G18    30.13R
BELLAIRE       CLOUDY    28  15  57 W6        30.13R
CADILLAC       CLOUDY    25  17  70 W10       30.09R
CHARLEVOIX     CLOUDY    26  13  57 NW12G20   30.14R
FRANKFORT      CLOUDY    27  17  65 NW12      30.15R
GAYLORD        CLOUDY    24  16  71 W7        30.06R
GRAYLING       CLOUDY    28  20  71 W10       30.09R
HARBOR SPRINGS MOCLDY    26  13  58 W9        30.11R
HOUGHTON LAKE  CLOUDY    27  17  66 W16G22    30.09R
MANISTEE       MOCLDY    27  16  63 NW9       30.16R
OSCODA         CLOUDY    31  19  59 W9        30.08R
PELLSTON       CLOUDY    25  18  74 NW13G21   30.10R
TRAVERSE CITY  FLURRIES  28  16  60 W10       30.13R
$$
MIZ007>008-015-290000-
EASTERN UPPER MICHIGAN

CITY           SKY/WX    TMP DP  RH WIND       PRES   REMARKS
KINROSS        PTCLDY    19  16  86 W13       30.06R
MACKINAC ISLAN CLOUDY    24  18  77 NW12G17   30.08R
NEWBERRY       CLOUDY    19  15  85 NW9       30.09R
S. S. MARIE    LGT SNOW  21  15  78 NW16G29   30.05F
$$
MIZ004>006-011>014-085-290000-
CENTRAL UPPER MICHIGAN

CITY           SKY/WX    TMP DP  RH WIND       PRES   REMARKS
MANISTIQUE     PTCLDY    19  12  76 NW9       30.13R
ESCANABA       MOCLDY    19  10  68 NW8       30.15R
MENOMINEE      CLOUDY    23  12  63 NW8       30.16R
SAWYER-GWINN   PTCLDY    12   7  79 NW6       30.12R
$$
MIZ001>003-009>011-084-290000-
WESTERN UPPER MICHIGAN

CITY           SKY/WX    TMP DP  RH WIND       PRES   REMARKS
IRON MOUNTAIN    N/A     16   7  67 NW12      30.14R
HOUGHTON       LGT SNOW  13   6  74 W12       30.14R WCI  -1
COPPER HARBOR    N/A     18   9  68 N14G25    30.16R
IRONWOOD       CLOUDY    10   9  92 W3        30.17R
$$

ABBREVIATIONS USED IN REMARKS
   TC - TEMPERATURE IN CELSIUS
  WCI - WIND CHILL INDEX
   HX - HEAT INDEX
  VSB - VISIBILITY




USA.gov is the U.S. government's official web portal to all federal, state and local government web resources and services.